Location: Bottens
(46.6171°N, 6.6605°E)
Time: 11:33:08
(UTC+00:00)

ATLAS 5 CENTAUR R/B - Pass Details

Date: 29 October 2021
Orbit: 497 x 1159 km, 63.4° (Epoch: 25 November)

Event Time Altitude Azimuth Distance (km) Brightness Sun altitude
Rises 19:44:13 0° 317° (NW) 2,931 5.8 -34.9°
Reaches altitude 10° 19:47:49 10° 347° (NNW) 2,165 4.6 -35.5°
Enters shadow 19:47:56 10° 349° (NNW) 2,151 4.6 -35.5°
